Location: Village de las Huertas
(35.3014°N, 106.4095°W)
Time: 17:40:05
(UTC+00:00)

Cosmos 2360 Rocket - Pass Details

Date: 29 October 2020
Orbit: 836 x 843 km, 71.0° (Epoch: 24 November)

Event Time Altitude Azimuth Distance (km) Brightness Sun altitude
Rises 12:41:19 0° 352° (N) 3,390 5.2 -9.5°
Reaches altitude 10° 12:44:18 10° 7° (N) 2,452 4.6 -8.9°
Maximum altitude 12:48:40 23° 58° (ENE) 1,716 4.5 -8.0°
Drops below altitude 10° 12:53:02 10° 110° (ESE) 2,443 6.3 -7.1°
Sets 12:55:58 0° 124° (SE) 3,374 6.8 -6.5°
